{"data":{"norad_id":40079,"epoch":"2026-09-19T20:29:36.161664Z","epoch_age_seconds":70226,"freshness":"FRESH","line1":"1 40079U 14038A   26262.85389076 -.00000027  00000+0  00000+0 0  9998","line2":"2 40079   0.0486 354.0972 0003594 226.4699 139.4084  5.00115847217773","mean_motion":5.00115847,"eccentricity":0.0003594,"inclination_deg":0.0486,"raan_deg":354.0972,"arg_perigee_deg":226.4699,"mean_anomaly_deg":139.4084,"bstar":0,"rev_number":21777,"period_min":287.93328758487,"perigee_km":8060.6923560844,"apogee_km":8071.0747180464,"semimajor_km":14444.020537065,"source":"CELESTRAK","updated_at":"2026-09-20T09:00:35.682477Z"}}